FW5715 Weather Reports


time (UTC)temp
C
wind
direction
speed
KPH
gust
KPH
rain 1hr
cm
rain 24hr
cm
rain mn
cm
humidity
%
barometer
mb
20260506014517 9 0.0 1.6 0.28 1.22 1.22 94 1008.9
20260506013536 9 0.0 3.2 0.33 1.19 1.19 94 1008.9
20260506012516 9 0.0 0.0 0.41 1.17 1.17 94 1008.8
20260506011517 9 135 1.6 3.2 0.41 1.14 1.14 93 1008.7
20260506010517 9 23 1.6 6.4 0.36 1.09 1.09 93 1008.9
20260506005517 9 0 9.7 16.1 0.30 1.02 1.02 93 1008.7
20260506004516 9 315 4.8 8.0 0.23 0.94 0.94 93 1008.9
20260506003516 9 45 3.2 8.0 0.28 0.86 0.89 93 1008.5
20260506002537 9 0 4.8 11.3 0.20 0.76 0.76 93 1008.2
20260506001516 9 23 4.8 8.0 0.25 0.74 0.74 93 1008.3
20260506000517 9 45 11.3 16.1 0.28 0.74 0.74 93 1008.0
20260505235517 10 338 9.7 14.5 0.30 0.71 0.71 93 1008.6
20260505234517 10 0 6.4 11.3 0.30 0.71 0.71 93 1008.3
20260505233516 10 0 4.8 8.0 0.18 0.58 0.58 93 1008.5
20260505232517 10 338 1.6 6.4 0.18 0.56 0.56 92 1008.4
20260505231517 10 338 4.8 6.4 0.10 0.48 0.48 92 1008.4
20260505230516 10 0 6.4 12.9 0.10 0.46 0.46 92 1008.4
20260505225516 10 315 9.7 14.5 0.15 0.41 0.41 92 1008.8
20260505224537 10 338 12.9 19.3 0.18 0.41 0.41 92 1008.1
20260505223516 11 0 19.3 24.1 0.20 0.41 0.41 91 1008.2
20260505222516 12 338 8.0 12.9 0.18 0.38 0.38 92 1008.3
20260505221516 12 0 4.8 6.4 0.18 0.38 0.38 92 1008.2
20260505220516 12 0 3.2 6.4 0.15 0.36 0.36 91 1008.2
20260505215517 12 338 4.8 8.0 0.05 0.25 0.25 91 1008.3
20260505214516 12 0 9.7 16.1 0.05 0.23 0.23 90 1007.8
20260505213517 13 338 4.8 8.0 0.05 0.20 0.20 90 1007.8
20260505212516 13 315 6.4 16.1 0.10 0.20 0.20 90 1007.7
20260505211516 13 315 8.0 12.9 0.13 0.20 0.20 90 1007.8
20260505210516 13 315 8.0 12.9 0.13 0.20 0.20 89 1008.0
20260505205516 14 315 6.4 12.9 0.13 0.20 0.20 88 1007.8
20260505204516 14 248 3.2 4.8 0.10 0.18 0.18 87 1007.8
20260505203536 15 270 1.6 4.8 0.08 0.15 0.15 85 1007.9
20260505202516 15 270 4.8 12.9 0.03 0.10 0.10 81 1007.7
20260505201556 16 270 8.0 17.7 0.00 0.08 0.08 77 1007.7
20260505200516 16 270 6.4 14.5 0.00 0.08 0.08 76 1007.6
20260505195516 16 270 9.7 16.1 0.00 0.08 0.08 76 1007.6
20260505194516 16 270 9.7 17.7 0.00 0.08 0.08 75 1007.8
20260505193516 16 270 8.0 16.1 0.00 0.08 0.08 75 1007.8
20260505192516 16 293 6.4 19.3 0.00 0.08 0.08 74 1007.9
20260505191516 17 270 4.8 16.1 0.00 0.08 0.08 72 1007.7
20260505190516 17 293 4.8 16.1 0.00 0.08 0.08 73 1007.9
20260505185516 17 270 4.8 16.1 0.00 0.08 0.08 73 1007.8
20260505184516 17 315 6.4 14.5 0.00 0.08 0.08 74 1007.5
20260505183536 16 315 6.4 14.5 0.00 0.08 0.08 73 1007.4
20260505182516 17 315 17.7 30.6 0.00 0.08 0.08 70 1007.5
20260505181516 18 270 1.6 12.9 0.00 0.08 0.08 63 1007.4
20260505180536 18 203 1.6 17.7 0.00 0.08 0.08 62 1007.2
20260505175536 19 225 4.8 19.3 0.00 0.08 0.08 61 1007.3
20260505174516 20 225 6.4 19.3 0.00 0.08 0.08 59 1007.0
20260505173516 20 180 1.6 12.9 0.00 0.08 0.08 62 1007.0
20260505172536 20 270 6.4 22.5 0.00 0.08 0.08 60 1007.1
20260505171516 20 203 3.2 14.5 0.00 0.08 0.08 63 1007.1
20260505170516 18 203 1.6 12.9 0.00 0.08 0.08 66 1007.2
20260505165516 18 180 3.2 17.7 0.00 0.08 0.08 64 1007.2
20260505164556 18 225 8.0 25.7 0.00 0.08 0.08 64 1007.2
20260505163516 20 225 9.7 19.3 0.00 0.08 0.08 61 1007.1
20260505162516 20 203 4.8 17.7 0.00 0.08 0.08 64 1006.8
20260505161516 19 203 12.9 33.8 0.00 0.08 0.08 66 1006.2
20260505160516 18 203 11.3 25.7 0.00 0.08 0.08 68 1006.7
20260505152516 17 180 4.8 17.7 0.00 0.08 0.08 74 1007.3
20260505151516 17 203 8.0 14.5 0.00 0.08 0.08 73 1007.1
20260505150516 17 225 9.7 16.1 0.00 0.08 0.08 73 1007.1
20260505140516 17 203 9.7 22.5 0.00 0.08 0.08 71 1006.5
20260505124516 17 203 12.9 30.6 0.00 0.08 0.08 68 1005.8
20260505123516 17 180 9.7 30.6 0.00 0.08 0.08 67 1005.7
20260505122516 17 203 14.5 33.8 0.00 0.08 0.08 68 1005.7
20260505121518 17 203 9.7 19.3 0.00 0.08 0.08 68 1005.9
20260505120518 17 203 11.3 24.1 0.00 0.08 0.08 69 1005.7
20260505115518 17 225 9.7 24.1 0.00 0.08 0.08 69 1005.9
20260505114518 17 203 11.3 22.5 0.00 0.08 0.08 69 1005.7
20260505113517 17 203 11.3 22.5 0.00 0.08 0.08 68 1005.4
20260505112517 17 203 9.7 25.7 0.00 0.08 0.08 68 1005.4
20260505111518 17 203 11.3 22.5 0.00 0.08 0.08 69 1005.5
20260505110517 17 203 14.5 32.2 0.00 0.08 0.08 69 1005.3
20260505101517 16 203 11.3 27.4 0.00 0.08 0.08 70 1004.9
20260505100518 16 203 14.5 29.0 0.00 0.08 0.08 70 1004.7
20260505095518 16 180 16.1 30.6 0.00 0.08 0.08 70 1004.7
20260505094518 16 203 14.5 29.0 0.00 0.08 0.08 71 1004.7
20260505093517 16 203 12.9 25.7 0.00 0.08 0.08 71 1004.7
20260505092517 16 203 12.9 24.1 0.00 0.08 0.08 71 1004.9
20260505091558 16 203 9.7 25.7 0.00 0.08 0.08 71 1004.8
20260505090517 16 203 12.9 25.7 0.00 0.08 0.08 71 1004.9
20260505085517 16 203 9.7 22.5 0.00 0.08 0.08 72 1004.7
20260505084517 16 203 11.3 30.6 0.00 0.08 0.08 72 1004.6
20260505083537 16 203 12.9 29.0 0.00 0.08 0.08 73 1004.6
20260505082517 16 203 9.7 22.5 0.00 0.08 0.08 74 1004.5
20260505081517 16 203 11.3 24.1 0.00 0.08 0.08 74 1004.4
20260505080537 16 203 11.3 24.1 0.00 0.08 0.08 75 1004.4
20260505075517 16 203 11.3 22.5 0.00 0.08 0.08 76 1004.4
20260505074537 16 180 12.9 20.9 0.00 0.08 0.08 76 1004.4
20260505073517 16 203 12.9 25.7 0.00 0.08 0.08 77 1004.4
20260505072639 15 203 12.9 20.9 0.00 0.08 0.08 78 1004.3
20260505071517 15 203 16.1 27.4 0.00 0.08 0.08 78 1004.3
20260505070517 15 180 14.5 22.5 0.03 0.08 0.08 80 1004.4
20260505065537 15 203 12.9 24.1 0.08 0.08 0.08 81 1004.5
20260505064537 15 203 11.3 20.9 0.08 0.08 0.08 82 1004.5
20260505063517 14 180 8.0 16.1 0.08 0.08 0.08 85 1004.7
20260505062517 14 203 6.4 11.3 0.08 0.08 0.08 86 1004.9
20260505061517 14 180 6.4 16.1 0.08 0.08 0.08 85 1004.9
20260505060517 15 203 14.5 38.6 0.05 0.05 0.05 79 1005.2
20260505055517 17 225 11.3 29.0 0.00 0.00 0.00 69 1005.7
20260505054537 17 203 12.9 22.5 0.00 0.00 0.00 68 1005.5
20260505053517 17 203 14.5 25.7 0.00 0.00 0.00 68 1005.4
20260505052517 17 203 14.5 29.0 0.00 0.00 0.00 68 1005.5
20260505051517 17 203 12.9 29.0 0.00 0.00 0.00 67 1005.4
20260505050517 17 180 17.7 29.0 0.00 0.00 0.00 67 1005.5
20260505041517 17 180 14.5 27.4 0.00 0.00 0.00 64 1005.7
20260505040517 17 203 14.5 25.7 0.00 0.00 0.00 64 1005.6
20260505035517 17 203 11.3 22.5 0.00 0.00 0.00 64 1005.7
20260505034517 17 180 9.7 17.7 0.00 0.00 0.00 64 1005.7
20260505033517 17 203 11.3 29.0 0.00 0.00 0.00 64 1005.7
20260505032537 17 203 12.9 29.0 0.00 0.00 0.00 64 1005.7
20260505031517 17 180 11.3 22.5 0.00 0.00 0.00 64 1005.8
20260505030537 17 203 8.0 20.9 0.00 0.00 0.00 65 1005.8
20260505025517 17 203 9.7 24.1 0.00 0.00 0.00 65 1005.8
20260505024517 17 203 11.3 24.1 0.00 0.00 0.00 67 1005.8
20260505023517 16 203 11.3 22.5 0.00 0.00 0.00 69 1005.8
20260505022537 16 203 12.9 20.9 0.00 0.00 0.00 71 1005.7
20260505021517 16 180 11.3 25.7 0.00 0.00 0.00 73 1005.8
20260505020517 16 180 9.7 16.1 0.00 0.00 0.00 74 1005.7
20260505015537 16 180 9.7 16.1 0.00 0.00 0.00 75 1005.5